Regional Weather Roundup
Issued by NWS

Home | Current Version | Previous Version | Text Only | Print | Product List | Glossary Off
Versions: 1 2 3 4 5 6 7 8 9 10 11 12 13 14 15 16 17 18 19 20 21 22 23 24 25 26 27 28 29 30 31 32 33 34 35 36 37 38 39 40 41 42 43 44 45 46 47 48 49 50

000
ASUS43 KDMX 171307
RWRIA

WEATHER ROUNDUP FOR IOWA
NATIONAL WEATHER SERVICE DES MOINES IA
800 AM CDT WED SEP 17 2014

NOTE: "FAIR" INDICATES FEW OR NO CLOUDS BELOW 12,000 FEET WITH NO
SIGNIFICANT WEATHER AND/OR OBSTRUCTIONS TO VISIBILITY.

* - THESE STATIONS ARE NOT NWS STATIONS...THUS NOT UNDER NWS
QUALITY CONTROL.  THEY ALSO DO NOT REPORT WEATHER SUCH
AS PRECIPITATION OR FOG.

IAZ001>003-012>014-020>022-031>034-043>046-171400-
   NORTHWEST IOWA

CITY           SKY/WX    TMP DP  RH WIND       PRES   REMARKS
CARROLL *      SUNNY     52  52 100 CALM      29.95S
CHEROKEE *     CLEAR     48  48 100 CALM      29.95R FOG
DENISON *      CLEAR     52  52 100 CALM      29.93R
LE MARS *      CLEAR     50  50 100 CALM      29.94R
ORANGE CITY *  MOCLDY    54  48  82 CALM      29.94R
SHELDON *      PTCLDY    48  48 100 CALM      29.93S
SIOUX CITY     CLEAR     54  52  93 CALM      29.93S
SPENCER        CLEAR     50  47  89 SE5       29.95S
STORM LAKE *   CLEAR     52  52 100 S5        29.95R
$$

IAZ055>058-069>071-079>083-090>094-171400-
   SOUTHWEST IOWA

CITY           SKY/WX    TMP DP  RH WIND       PRES   REMARKS
ATLANTIC *     CLEAR     54  54 100 CALM      29.94S
AUDUBON *      CLEAR     52  46  82 CALM      29.96S
CLARINDA *     CLOUDY    61  57  88 CALM      29.96R
COUNCIL BLFS * CLEAR     57  57 100 SE5       29.92S
CRESTON *      CLOUDY    55  55 100 SE5       29.96R
HARLAN  *      PTCLDY    54  54 100 CALM      29.97S
LAMONI         CLOUDY    58  55  90 SE7       29.96S
SHENANDOAH *   PTCLDY    57  55  94 CALM      29.94S
$$

IAZ047>049-059>061-072>074-084-171400-
   CENTRAL IOWA

CITY           SKY/WX    TMP DP  RH WIND       PRES   REMARKS
AMES           CLOUDY    53  51  93 CALM      29.97S
ANKENY *       CLOUDY    55  54  94 CALM      29.97R
CHARITON *     CLOUDY    57  54  88 S5        29.97R
DES MOINES     CLOUDY    58  51  78 SE7       29.96S
GRINNELL*      CLOUDY    52  50  93 E5        29.99S
KNOXVILLE *    CLOUDY    54  52  94 CALM      29.96R
MARSHALLTOWN   SUNNY     49  47  93 E7        29.98S
PELLA *        CLOUDY    54  52  94 E3        29.98S
PERRY *        CLOUDY    55  54  94 CALM      29.96S
$$

IAZ004>006-015-016-023>025-035-036-171400-
   NORTH CENTRAL IOWA

CITY           SKY/WX    TMP DP  RH WIND       PRES   REMARKS
ALGONA *       SUNNY     50  48  93 SE5       29.97S
CLARION *        N/A     50  48  93 CALM      29.97S
ESTHERVILLE    PTCLDY    47  46  97 S5        29.96R
FORT DODGE *   CLOUDY    50  48  93 E5        29.96S
MASON CITY     PTSUNNY   49  47  93 S3        30.00R
FOREST CITY *  SUNNY     50  50 100 SE3       29.98S
IOWA FALLS *     N/A     48  46  93 SE3       29.99S
$$

IAZ007>011-017>019-026>030-037>042-050>054-066-171400-
   NORTHEAST IOWA

CITY           SKY/WX    TMP DP  RH WIND       PRES   REMARKS
CEDAR RAPIDS   CLOUDY    49  47  93 E5        29.99F
CHARLES CITY * CLOUDY    50  46  87 SE6       30.00S
CLINTON *      SUNNY     46  43  87 E5        30.05S
DECORAH *      CLOUDY    48  46  93 CALM      30.00S
DUBUQUE        CLOUDY    50  47  89 CALM      30.02F
MONTICELLO *   SUNNY     46  46 100 CALM      30.01F
OELWEIN *      MOSUNNY   50  48  93 SE6       30.01S
WATERLOO       SUNNY     50  47  89 E5        29.99F
$$

IAZ064-065-067-068-078-171400-
   EAST CENTRAL IOWA

CITY           SKY/WX    TMP DP  RH WIND       PRES   REMARKS
DAVENPORT      SUNNY     51  47  86 SE3       30.02F
IOWA CITY      CLOUDY    51  49  92 CALM      30.01F
MT. PLEASANT * CLOUDY    54  54 100 SE3       30.00S FOG
MUSCATINE *    PTSUNNY   50  48  93 CALM      30.01F
QUAD CITIES    MOSUNNY   49  47  93 E3        30.03S
$$

IAZ062-063-075>077-085>089-095>099-171400-
   SOUTHEAST IOWA

CITY           SKY/WX    TMP DP  RH WIND       PRES   REMARKS
BURLINGTON     CLOUDY    55  52  89 S3        30.01S
FAIRFIELD *    CLOUDY    55  52  88 SE5       29.99S
FORT MADISON * CLOUDY    55  54  94 CALM      30.01S FOG
KEOKUK *       CLOUDY    55  54  94 SE3       30.00R FOG
OSKALOOSA *    CLOUDY    54  52  94 SE3       29.98S
CENTERVILLE *  CLOUDY    55  55 100 SE3       30.00R
OTTUMWA        CLOUDY    54  52  93 SE5       29.96F
WASHINGTON *   CLOUDY    52  52 100 CALM      30.00S
$$

ABBREVIATIONS USED IN REMARKS
   TC - TEMPERATURES IN CELSIUS
  WCI - WIND CHILL INDEX
   HX - HEAT INDEX
  VSB - VISIBILITY
$$



USA.gov is the U.S. government's official web portal to all federal, state and local government web resources and services.